www.pogodaiklimat.ru

Погода и климат >> Архив погоды >> Канада >> Cambridge Bay Arpt


ПОГОДА в Cambridge Bay Arpt

  • Прогноз погоды в Cambridge Bay Arpt
  • Монитор погоды в Cambridge Bay Arpt
  • Климат города

АРХИВ ПОГОДЫ в Cambridge Bay Arpt

Время (UTC), дата Ветер
(напр.,м/с)
 
Видим.   Явления Облачность Т
(С)
Тd
(С)
f
(%)
Тe
(С)
Тes
(С)
Комфортность P
(гПа)
Po
(гПа)
Тmin
(С)
Tmax
(С)
R
(мм)
R24
(мм)
S
(см)
00 10.08 С 3 24 км 9/4 600 м
[Sc Ac As Ci fib]
+9.9 +3.7 65 +8 +9 1017.0 1013.0 +8.5 +10.7
03 10.08 В 2 24 км 6/6 600 м
[]
+7.9 +3.8 75 +6 +6 1017.2 1013.2
06 10.08 ЮВ 3 24 км 4/1 600 м
[Sc Ac As Ci fib]
+4.8 +3.8 93 +1 +1 1017.2 1013.2 +4.6 +10.7 161
09 10.08 Ю 6 24 км 8/8 600 м
[]
+6.2 +4.6 89 +2 +2 1016.5 1012.5
12 10.08 Ю 5 24 км 5/3 1000 м
[Sc Ci fib]
+6.5 +5.4 93 +2 +3 1016.0 1012.0 +4.6 +10.7
15 10.08 Ю 5 24 км 8/8 1000 м
[]
+9.8 +6.6 80 +7 +7 1015.2 1011.2
18 10.08 Ю 6 24 км 9/4 300 м
[Cu Sc Ac As Ci fib]
+11.0 +6.9 76 +8 +9 1014.4 1010.4 +4.6 +11.1
21 10.08 ЮВ 7 24 км 10/10 600 м
[]
+11.5 +6.3 70 +9 +9 1013.6 1009.6
00 11.08 ЮВ 6 24 км слабый дождь {ливн. осадки} 9/4 600 м
[Sc Ac As]
+9.7 +7.8 88 +6 +6 1012.7 1008.7 +4.8 +12.5 0.6
03 11.08 ЮВ 6 24 км 9/9 600 м
[]
+9.0 +7.8 92 +5 +5 1011.3 1007.3
06 11.08 ЮВ 2 24 км {дождь} 10/10 1000 м
[Sc Ac trans]
+9.0 +7.9 93 +8 +8 1010.8 1006.8 +4.8 +12.5 1 21
09 11.08 В 3 24 км 9/9 1000 м
[]
+9.5 +8.4 93 +7 +7 1009.9 1005.9
12 11.08 В 2 24 км 5/3 1000 м
[Cu med, cong Ac As]
+9.0 +8.0 93 +8 +8 1009.5 1005.5 +8.1 +12.5
15 11.08 Ю 1 24 км 5/5 1500 м
[]
+12.5 +10.8 89 +12 +15 1009.1 1005.2
18 11.08 СВ 4 24 км 3/1 1500 м
[Sc Ac As Ci fib]
+18.0 +12.7 71 +18 +22 1008.6 1004.7 +8.1 +18.1
21 11.08 ЮЗ 4 24 км 1/1 1500 м
[]
+17.3 +11.9 71 +17 +21 1008.3 1004.4
00 12.08 ЮВ 2 24 км 6/0
[Ac trans Ci fib]
+20.9 +13.5 63 +24 +26 комфорт 1007.9 1004.0 +8.3 +22.0
03 12.08 В 4 24 км 5/0
[]
+14.9 +11.3 79 +14 +14 1007.3 1003.4
06 12.08 В 3 24 км 3/0
[Ac trans Ci fib]
+11.5 +10.2 92 +10 +10 1007.5 1003.6 +8.3 +22.0 19
09 12.08 СВ 4 24 км 1/0
[]
+11.8 +11.2 96 +9 +9 1007.2 1003.3
12 12.08 СВ 3 24 км 3/0
[Ac trans]
+12.6 +11.7 94 +11 +11 1006.7 1002.8 +10.7 +22.0
15 12.08 В 3 24 км 1/0
[]
+16.6 +13.5 82 +16 +20 1006.0 1002.1
18 12.08 ЮВ 7 24 км 5/0
[Ac trans Ci fib]
+20.5 +13.8 65 +23 +24 комфорт 1005.1 1001.2 +10.7 +20.6
21 12.08 ЮВ 5 24 км 6/0
[]
+21.3 +13.8 62 +24 +26 комфорт 1004.1 1000.2
00 13.08 ЮВ 5 24 км 8/0 2000 м
[Ac trans Ci fib]
+19.5 +13.9 70 +21 +22 комфорт 1003.2 999.3 +10.7 +21.6
03 13.08 В 4 24 км 6/0 2000 м
[]
+15.8 +13.8 88 +15 +15 1002.2 998.3
06 13.08 В 4 20 км мгла 1/0
[Ac trans]
+13.3 +11.9 91 +12 +12 1001.4 997.5 +10.7 +21.6 19
09 13.08 В 2 20 км 3/0
[]
+13.8 +12.1 89 +13 +13 1000.0 996.1
12 13.08 ЮВ 2 19 км мгла 6/0
[Ac trans Ci fib]
+13.9 +11.8 87 +13 +14 999.7 995.8 +13.2 +21.6
15 13.08 Ю 4 16 км 9/0
[]
+16.9 +12.8 77 +17 +18 999.4 995.5
18 13.08 ЮЗ 3 12 км мгла 10/0
[Ac As Ci fib]
+17.4 +12.9 75 +18 +20 999.5 995.6 +13.2 +17.5
21 13.08 ЮЗ 2 12 км 10/0
[]
+18.3 +13.0 71 +19 +22 1000.2 996.3
00 14.08 СВ 9 16 км ясно +17.2 +13.3 78 +16 +16 1001.0 997.1 +13.2 +21.9
03 14.08 СВ 11 16 км 10/10 100 м
[]
+11.5 +10.5 94 +7 +7 1002.9 999.0
06 14.08 4000 м дымка н/о +7.8 +7.3 97 +2 +2 1005.4 1001.5 +7.7 +21.9 51
09 14.08 СВ 11 4800 м 10/10 50 м
[]
+6.4 +5.9 97 -0 -0 1006.9 1003.0
12 14.08 4000 м слабая морось н/о +5.1 +4.7 97 -2 -2 1009.3 1005.4 +5.0 +21.9 0.0
15 14.08 СВ 10 24 км 10/10 200 м
[]
+4.5 +2.1 84 -2 -2 1011.4 1007.4
18 14.08 СВ 10 24 км {морось} 10/1 300 м
[Sc Ac As]
+6.6 +1.2 68 +1 +1 1012.7 1008.7 +3.9 +8.2 0.0
21 14.08 СВ 11 24 км 10/10 300 м
[]
+5.9 +1.0 71 -0 -0 1013.3 1009.3
00 15.08 СВ 9 24 км 10/0 2000 м
[Ac As]
+5.3 +1.2 75 -1 -1 1014.2 1010.2 +3.9 +6.7
03 15.08 СВ 9 24 км 10/0 2000 м
[]
+4.0 +1.5 84 -2 -2 1014.9 1010.9
06 15.08 СВ 8 24 км 9/0 2000 м
[Ac As]
+3.2 +1.4 88 -3 -3 1015.0 1011.0 +3.2 +8.2 101
09 15.08 СВ 8 24 км 9/0 2000 м
[]
+2.5 +1.2 91 -4 -4 1014.9 1010.9
12 15.08 СВ 5 24 км 10/1 600 м
[Sc Ac As]
+2.8 +1.3 90 -3 -3 1015.3 1011.3 +2.5 +8.2
15 15.08 В 7 24 км 9/9 600 м
[]
+5.0 +2.1 81 -0 -0 1014.8 1010.8
18 15.08 В 6 24 км 10/0
[Ac As Cs]
+8.7 +2.9 67 +5 +7 1014.6 1010.6 +2.5 +8.7
21 15.08 В 6 24 км 10/10 600 м
[]
+10.1 +2.7 60 +7 +7 1014.0 1010.0
00 16.08 В 7 24 км 10/1 600 м
[Sc Ac As Cs]
+9.2 +2.7 64 +5 +6 1013.3 1009.3 +2.5 +10.3
03 16.08 В 9 24 км 10/0 2000 м
[]
+6.7 +2.8 76 +1 +1 1012.7 1008.7
06 16.08 ЮВ 8 24 км 10/0 2000 м
[Ac As Cs]
+5.9 +3.8 86 0 0 1012.0 1008.0 +2.5 +10.3 31
09 16.08 ЮВ 9 24 км 9/0 2000 м
[]
+5.6 +4.7 94 -0 -0 1011.3 1007.3
12 16.08 ЮВ 8 24 км 10/0 2000 м
[Ac As Cs]
+5.7 +4.8 94 -0 -0 1010.8 1006.8 +5.4 +10.3
15 16.08 ЮВ 8 24 км 9/0 2000 м
[]
+7.1 +4.9 86 +2 +2 1009.9 1005.9
18 16.08 ЮВ 10 24 км 10/5 1500 м
[Sc Cs]
+8.4 +5.0 79 +3 +3 1009.1 1005.1 +5.4 +8.4
21 16.08 В 10 24 км 9/9 1500 м
[]
+10.8 +6.4 74 +7 +7 1008.3 1004.3

 

Местоположение метеостанции Cambridge Bay Arpt (Канада): широта 69.10 долгота -105.10 высота над уровнем моря 27 м.

В архиве по умолчанию представлена погода в Cambridge Bay Arpt за последнюю неделю. Архивные данные за месяц целиком и за предыдущие месяцы, начиная с января 2011 года, Вы можете получить, выбрав интересующий диапазон дат из раскрывающегося списка и нажав кнопку "Ввод!".

Внимание! Время в таблицах - всемирное. Для получения местного времени необходимо прибавить поправку, которая в Cambridge Bay Arpt равна -7 ч.

Смотрите также архив погоды в соседних городах и на ближайших метеорологических станциях:

Погода в Cape Peel West (Канада) (108 км)
Погода в Ellice River AWS (Канада) (158 км)
Погода в Hat Island (Канада) (223 км)
Погода в Gjoa Haven Climate (Канада) (374 км)
Погода в Kugluktuk (Канада) (432 км)
Погода в Kugluktuk Airport (Канада) (432 км)
Погода в Lupin (Канада) (452 км)
Погода в Lupin (maps) (Канада) (452 км)
Погода в Spence bay (Канада) (454 км)
Погода в Robertson Lake (Канада) (460 км)

Пояснения к столбцам:

Ветер - указаны скорость ветра в м/с - средняя за 10 мин, порывы в срок и между сроками (в фигурных скобках) и направление, откуда дует ветер: С - северный, СВ - северо-восточный, В - восточный, ЮВ - юго-восточный, Ю - южный, ЮЗ - юго-западный, З - западный, СЗ - северо-западный.
Видимость - горизонтальная дальность видимости в метрах или километрах. При видимости от 1 до 10 км при отсутствии осадков обычно наблюдается дымка, при ухудшении видимости до 1 км и менее - туман. В сухую погоду видимость может ухудшаться дымом, пылью или мглою.
Явления - указаны атмосферные явления, наблюдавшиеся в срок или в последний час перед сроком; фигурными скобками обозначены явления, наблюдавшиеся между сроками (за 1-3 часа до срока); квадратными скобками обозначены град или гололедные отложения с указанием их диаметра в мм.
Облачность - указаны через наклонную черту общая и нижняя облачность в баллах и высота нижней границы облаков в метрах; квадратными скобками обозначены формы облаков: Ci - перистые, Cs - перисто-слоистые, Cc - перисто-кучевые, Ac - высококучевые, As - высокослоистые, Sc - слоисто-кучевые, Ns - слоисто-дождевые, Cu - кучевые, Cb - кучево-дождевые. Подробнее классификацию облаков см. в Атласе облаков (PDF).
T - Температура воздуха - температура, измеренная на высоте 2 м над землей.
Td - Температура точки росы - температура, при понижении до которой содержащийся в воздухе водяной пар достигнет насыщения.
f - Относительная влажность воздуха - влажноcть воздуха, измеренная на высоте 2 м над землей.
Te - Эффективная температура - температура, которую ощущает одетый по сезону человек в тени. Характеристика душности погоды. При расчете учитывается влияние влажности воздуха и скорости ветра на теплоощущения человека.
Tes - Эффективная температура на солнце - температура, которую ощущает человек, с поправкой на солнечный нагрев. Характеристика знойности погоды. Зависит от высоты солнца над горизонтом, облачности и скорости ветра. Ночью, в пасмурную погоду, а также при ветре 12 м/с и более поправка равна нулю.
P - Атмосферное давление - приведенное к уровню моря атмосферное давление.
Po - Атмосферное давление - измеренное на уровне метеостанции атмосферное давление.
Tmin - Минимальная температура - минимум температуры воздуха на высоте 2 м над землей.
Tmax - Максимальная температура - максимум температуры воздуха на высоте 2 м над землей.
R - Количество осадков - Количество выпавших осадков за период времени, мм. При наведении курсора мыши на число - период времени, за который выпало указанное количество осадков.
R24 - Количество осадков - Количество выпавших осадков за 24 часа, мм.
S - Снежный покров - Высота снежного покрова, см. При наведении курсора мыши на число - состояние снежного покрова и степень покрытия местности в баллах.